LDPE-3A DEB, 55267

Orbit data source: Space-Track

LDPE-3A DEB, 55267 is space debris in GEO originally from a launch on Sun, 15 Jan 2023 UTC launched from the Air Force Eastern Test Range (AFETR). Debris objects in space refer to the collection of defunct objects orbiting the Earth. Examples of debris include non-operational satellites, rocket bodies, and fragments generated from explosions, collisions, or faulty payload assembly.

Loading next visibility...
Identifier
55267, 2023-008E
Orbit
GEO
Country
Flag of USUS
Related business
Manufacturer
SpaceX
Mission
Spacecraft
Bus & Motor
Unknown
Mass
Unknown
Launch date (UTC)
2023-01-15 (3 years ago)
Launch vehicle
Unknown
Launch site
Air Force Eastern Test Range (AFETR)
Object type
Payload
Rocket body
Debris
Shape & HBR
Unknown shape, 1.1 m
Radar Cross Section
RCS unknown

Expand to show TLE details & history
Last TLE update: 3 days ago

TLE from 3 days ago
0 LDPE-3A DEB
1 55267U 23008E   26170.81559005 -.00000164  00000-0  00000+0 0  9998
2 55267   3.1628  78.0969 0003367 195.8302 163.8141  1.02219810  7929
Epoch: 2026-06-19T19:34Z
TLE epoch observation values (Epoch: 2026-06-19T19:34:26.980Z)
Latitude
0.00001°
Longitude
-123.88517°
Altitude
35,262.191 km
Speed
3.093 km/s
True Right ascension
05h 11m 03s
True Declination
0° 00' 00"
Sunlit
Object was in daylight at epoch
Visualization orbit readout
Latitude
Unknown
Longitude
Unknown
Altitude
Unknown
Speed
Unknown
Apparent Right ascension
Unknown
Apparent Declination
Unknown
Sunlit
N/A
Visualization observer readout
Local Sidereal Time
00:51:18
Azimuth
Unknown
Elevation
Unknown
Doppler factor
Unknown
Orbital elements
Apogee altitude
35,264.279 km
Perigee altitude
35,236.246 km
Semi-major axis
41,628.4 km
Eccentricity
0.00034
Inclination
3.1628°
RAAN
78.0969°
Arg. of periapsis
195.8302°
True anomaly
163.82485°
Mean anomaly
163.8141°
Eccentric anomaly
163.81948°
Mean motion
0.25554 °/min
Orbital period
1,408.78 mins
BSTAR
0
Loading maneuver chart data...
Computing Atmospheric mass density...
Loading historical data...
Loading historical data...
Loading historical data...
Loading historical data...
Loading historical data...
Loading historical data...
Loading historical data...
Other satellites on launch #8 in the year 2023 (2023-01-15 UTC)

Documentation

Showing up to 5 results
|